Airfield :
LOGIN :

Register | Disclaimer

   EN    FR    IT 

 










Legend :    VFR   Marginal VFR   IFR   Intensive IFR   Very Intensive IFR
Visi :
Ceiling :
>= 8 km
>= 3000ft
5 to 8 km
1000 to 3000 ft
1500m to 5 km
500 to 1000 ft
800 to 1500m
200 to 500 ft
< 800m
< 200 ft
Symbols :   Thunderstorms  Fog  Heavy snow  Heavy precipitations  Wind > 20 kt
SIGMETs :     Misc.  Thunderstorms  Icing  Turbulence  Mountain Waves  Volcanic Ashes






- Airport Elevation : 194 ft
- IATA code : ANE


LFJR - Angers Marcé

CURRENT METAR :
  • 060600Z AUTO 19007KT 8000 -RA ///CB 10/07 Q1017

EXPIRED METARs :
  • 060530Z AUTO 19007KT 9999 -RA BKN029/// BKN062/// OVC074/// ///TCU 12/05 Q1016
  • 060500Z AUTO 19005KT 9999 -RA FEW030/// OVC086/// ///TCU 13/03 Q1016
  • 060430Z AUTO 18007KT CAVOK 13/02 Q1015
  • 060400Z AUTO 17007KT CAVOK 13/01 Q1015
  • 060330Z AUTO 18009KT CAVOK 13/01 Q1015

Expired Forecast.



MET'MAP, your aeronautical weather chart ! - Copyright ORBIFLY December 2007 - Disclaimer

ORBIFLY MET'MAP TEAM :

Programming & Development : Alexandra Zaïnal
Concept & original design : Baudouin d'Aumeries
Assistance for programming : Marc-Olivier Méhu
Technical & hardware support : Manuel Goepfert

Contact : metmap@orbifly.com




SOURCES & CREDITS :

   NOAA